Time,TemperatureF,DewpointF,PressureIn,WindDirection,WindDirectionDegrees,WindSpeedMPH,WindSpeedGustMPH,Humidity,HourlyPrecipIn,Conditions,Clouds,dailyrainin,SoftwareType,DateUTC
2013-08-26 00:00:00,61.0,58.0,29.92,SW,225,3.0,-999.0,90,0.00,,,0.00,Wunderground v.1.15,2013-08-26 07:00:00,
2013-08-26 00:05:00,61.0,58.0,29.92,SW,225,3.0,-999.0,90,0.00,,,0.00,Wunderground v.1.15,2013-08-26 07:05:00,
2013-08-26 00:10:00,61.0,58.0,29.92,WSW,248,3.0,-999.0,90,0.00,,,0.00,Wunderground v.1.15,2013-08-26 07:10:00,
2013-08-26 00:15:00,61.0,58.0,29.92,West,270,4.0,-999.0,90,0.00,,,0.00,Wunderground v.1.15,2013-08-26 07:15:00,
2013-08-26 00:20:00,61.1,58.1,29.92,West,270,2.0,-999.0,90,0.00,,,0.00,Wunderground v.1.15,2013-08-26 07:20:00,
2013-08-26 00:25:00,61.1,58.1,29.92,WSW,248,4.0,-999.0,90,0.00,,,0.00,Wunderground v.1.15,2013-08-26 07:25:00,
2013-08-26 00:30:00,61.1,57.8,29.92,SW,225,5.0,-999.0,89,0.00,,,0.00,Wunderground v.1.15,2013-08-26 07:30:00,
2013-08-26 00:35:00,61.1,57.8,29.92,West,270,4.0,-999.0,89,0.00,,,0.00,Wunderground v.1.15,2013-08-26 07:35:00,
2013-08-26 00:40:00,61.2,57.9,29.93,West,270,4.0,-999.0,89,0.00,,,0.00,Wunderground v.1.15,2013-08-26 07:40:00,
2013-08-26 00:45:00,61.2,57.9,29.93,SW,225,4.0,-999.0,89,0.00,,,0.00,Wunderground v.1.15,2013-08-26 07:45:00,
2013-08-26 00:50:00,61.3,58.0,29.93,WSW,248,4.0,-999.0,89,0.00,,,0.00,Wunderground v.1.15,2013-08-26 07:50:00,
2013-08-26 00:55:00,61.3,58.0,29.93,SW,225,3.0,-999.0,89,0.00,,,0.00,Wunderground v.1.15,2013-08-26 07:55:00,
2013-08-26 01:00:00,61.3,57.7,29.93,WSW,248,2.0,-999.0,88,0.00,,,0.00,Wunderground v.1.15,2013-08-26 08:00:00,
2013-08-26 01:05:00,61.4,57.8,29.93,SW,225,4.0,-999.0,88,0.00,,,0.00,Wunderground v.1.15,2013-08-26 08:05:00,
2013-08-26 01:10:00,61.5,57.9,29.93,WSW,248,3.0,-999.0,88,0.00,,,0.00,Wunderground v.1.15,2013-08-26 08:10:00,
2013-08-26 01:15:00,61.6,58.0,29.93,SW,225,4.0,-999.0,88,0.00,,,0.00,Wunderground v.1.15,2013-08-26 08:15:00,
2013-08-26 01:20:00,61.6,58.0,29.93,WSW,248,3.0,-999.0,88,0.00,,,0.00,Wunderground v.1.15,2013-08-26 08:20:00,
2013-08-26 01:25:00,61.6,58.0,29.93,SW,225,4.0,-999.0,88,0.00,,,0.00,Wunderground v.1.15,2013-08-26 08:25:00,
2013-08-26 01:30:00,61.6,58.0,29.93,West,270,4.0,-999.0,88,0.00,,,0.00,Wunderground v.1.15,2013-08-26 08:30:00,
2013-08-26 01:35:00,61.6,57.7,29.93,WSW,248,4.0,-999.0,87,0.00,,,0.00,Wunderground v.1.15,2013-08-26 08:35:00,
2013-08-26 01:40:00,61.6,57.7,29.93,SW,225,4.0,-999.0,87,0.00,,,0.00,Wunderground v.1.15,2013-08-26 08:40:00,
2013-08-26 01:45:00,61.6,57.7,29.93,SW,225,4.0,-999.0,87,0.00,,,0.00,Wunderground v.1.15,2013-08-26 08:45:00,
2013-08-26 01:50:00,61.6,57.7,29.93,WSW,248,3.0,-999.0,87,0.00,,,0.00,Wunderground v.1.15,2013-08-26 08:50:00,
2013-08-26 01:55:00,61.6,57.7,29.93,West,270,4.0,-999.0,87,0.00,,,0.00,Wunderground v.1.15,2013-08-26 08:55:00,
2013-08-26 02:00:00,61.6,57.7,29.93,WSW,248,3.0,-999.0,87,0.00,,,0.00,Wunderground v.1.15,2013-08-26 09:00:00,
2013-08-26 02:05:00,61.6,57.7,29.93,SW,225,4.0,-999.0,87,0.00,,,0.00,Wunderground v.1.15,2013-08-26 09:05:00,
2013-08-26 02:10:00,61.6,57.7,29.94,WSW,248,3.0,-999.0,87,0.00,,,0.00,Wunderground v.1.15,2013-08-26 09:10:00,
2013-08-26 02:15:00,61.6,57.7,29.94,SW,225,3.0,-999.0,87,0.00,,,0.00,Wunderground v.1.15,2013-08-26 09:15:00,
2013-08-26 02:20:00,61.6,57.7,29.94,WNW,293,3.0,-999.0,87,0.00,,,0.00,Wunderground v.1.15,2013-08-26 09:20:00,
2013-08-26 02:25:00,61.5,57.3,29.94,WSW,248,2.0,-999.0,86,0.00,,,0.00,Wunderground v.1.15,2013-08-26 09:25:00,
2013-08-26 02:30:00,61.5,57.3,29.94,West,270,4.0,-999.0,86,0.00,,,0.00,Wunderground v.1.15,2013-08-26 09:30:00,
2013-08-26 02:35:00,61.5,57.6,29.94,WSW,248,4.0,-999.0,87,0.00,,,0.00,Wunderground v.1.15,2013-08-26 09:35:00,
2013-08-26 02:40:00,61.4,57.2,29.94,WSW,248,4.0,-999.0,86,0.00,,,0.00,Wunderground v.1.15,2013-08-26 09:40:00,
2013-08-26 02:45:00,61.4,57.5,29.94,West,270,3.0,-999.0,87,0.00,,,0.00,Wunderground v.1.15,2013-08-26 09:45:00,
2013-08-26 02:50:00,61.4,57.5,29.94,WSW,248,3.0,-999.0,87,0.00,,,0.00,Wunderground v.1.15,2013-08-26 09:50:00,
2013-08-26 02:55:00,61.4,57.5,29.94,WSW,248,3.0,-999.0,87,0.00,,,0.00,Wunderground v.1.15,2013-08-26 09:55:00,
2013-08-26 03:00:00,61.4,57.5,29.94,West,270,2.0,-999.0,87,0.00,,,0.00,Wunderground v.1.15,2013-08-26 10:00:00,
2013-08-26 03:05:00,61.4,57.5,29.94,West,270,3.0,-999.0,87,0.00,,,0.00,Wunderground v.1.15,2013-08-26 10:05:00,
2013-08-26 03:10:00,61.4,57.5,29.94,West,270,2.0,-999.0,87,0.00,,,0.00,Wunderground v.1.15,2013-08-26 10:10:00,
2013-08-26 03:15:00,61.4,57.5,29.94,West,270,2.0,-999.0,87,0.00,,,0.00,Wunderground v.1.15,2013-08-26 10:15:00,
2013-08-26 03:20:00,61.3,57.4,29.95,SW,225,2.0,-999.0,87,0.00,,,0.00,Wunderground v.1.15,2013-08-26 10:20:00,
2013-08-26 03:25:00,61.3,57.4,29.95,SW,225,1.0,-999.0,87,0.00,,,0.00,Wunderground v.1.15,2013-08-26 10:25:00,
2013-08-26 03:30:00,61.2,57.6,29.95,West,270,1.0,-999.0,88,0.00,,,0.00,Wunderground v.1.15,2013-08-26 10:30:00,
2013-08-26 03:35:00,61.2,57.6,29.95,SW,225,2.0,-999.0,88,0.00,,,0.00,Wunderground v.1.15,2013-08-26 10:35:00,
2013-08-26 03:40:00,61.2,57.6,29.95,WSW,248,1.0,-999.0,88,0.00,,,0.00,Wunderground v.1.15,2013-08-26 10:40:00,
2013-08-26 03:45:00,61.1,57.5,29.95,WSW,248,2.0,-999.0,88,0.00,,,0.00,Wunderground v.1.15,2013-08-26 10:45:00,
2013-08-26 03:50:00,61.1,57.5,29.95,WSW,248,1.0,-999.0,88,0.00,,,0.00,Wunderground v.1.15,2013-08-26 10:50:00,
2013-08-26 03:55:00,61.1,57.8,29.95,WSW,248,2.0,-999.0,89,0.00,,,0.00,Wunderground v.1.15,2013-08-26 10:55:00,
2013-08-26 04:00:00,61.0,57.7,29.95,WSW,248,2.0,-999.0,89,0.00,,,0.00,Wunderground v.1.15,2013-08-26 11:00:00,
2013-08-26 04:05:00,61.0,57.7,29.95,West,270,1.0,-999.0,89,0.00,,,0.00,Wunderground v.1.15,2013-08-26 11:05:00,
2013-08-26 04:10:00,60.9,57.6,29.95,SSE,158,2.0,-999.0,89,0.00,,,0.00,Wunderground v.1.15,2013-08-26 11:10:00,
2013-08-26 04:15:00,60.9,57.6,29.95,SSW,203,1.0,-999.0,89,0.00,,,0.00,Wunderground v.1.15,2013-08-26 11:15:00,
2013-08-26 04:20:00,60.8,57.5,29.95,SW,225,2.0,-999.0,89,0.00,,,0.00,Wunderground v.1.15,2013-08-26 11:20:00,
2013-08-26 04:25:00,60.7,57.4,29.95,SW,225,1.0,-999.0,89,0.00,,,0.00,Wunderground v.1.15,2013-08-26 11:25:00,
2013-08-26 04:30:00,60.7,57.4,29.95,West,270,1.0,-999.0,89,0.00,,,0.00,Wunderground v.1.15,2013-08-26 11:30:00,
2013-08-26 04:35:00,60.6,57.7,29.95,WSW,248,3.0,-999.0,90,0.00,,,0.00,Wunderground v.1.15,2013-08-26 11:35:00,
2013-08-26 04:40:00,60.5,57.6,29.95,SW,225,1.0,-999.0,90,0.00,,,0.00,Wunderground v.1.15,2013-08-26 11:40:00,
2013-08-26 04:45:00,60.5,57.6,29.95,SW,225,0.0,-999.0,90,0.00,,,0.00,Wunderground v.1.15,2013-08-26 11:45:00,
2013-08-26 04:50:00,60.5,57.6,29.95,SW,225,2.0,-999.0,90,0.00,,,0.00,Wunderground v.1.15,2013-08-26 11:50:00,
2013-08-26 04:55:00,60.4,57.5,29.95,SW,225,1.0,-999.0,90,0.00,,,0.00,Wunderground v.1.15,2013-08-26 11:55:00,
2013-08-26 05:00:00,60.3,57.4,29.95,SW,225,2.0,-999.0,90,0.00,,,0.00,Wunderground v.1.15,2013-08-26 12:00:00,
2013-08-26 05:05:00,60.2,57.3,29.96,SW,225,2.0,-999.0,90,0.00,,,0.00,Wunderground v.1.15,2013-08-26 12:05:00,
2013-08-26 05:10:00,60.2,57.3,29.96,West,270,1.0,-999.0,90,0.00,,,0.00,Wunderground v.1.15,2013-08-26 12:10:00,
2013-08-26 05:15:00,60.2,57.6,29.96,SSW,203,1.0,-999.0,91,0.00,,,0.00,Wunderground v.1.15,2013-08-26 12:15:00,
2013-08-26 05:20:00,60.2,57.6,29.96,West,270,0.0,-999.0,91,0.00,,,0.00,Wunderground v.1.15,2013-08-26 12:20:00,
2013-08-26 05:25:00,60.1,57.5,29.96,SW,225,2.0,-999.0,91,0.00,,,0.00,Wunderground v.1.15,2013-08-26 12:25:00,
2013-08-26 05:30:00,60.1,57.5,29.96,WSW,248,1.0,-999.0,91,0.00,,,0.00,Wunderground v.1.15,2013-08-26 12:30:00,
2013-08-26 05:35:00,60.0,57.4,29.96,WSW,248,0.0,-999.0,91,0.00,,,0.00,Wunderground v.1.15,2013-08-26 12:35:00,
2013-08-26 05:40:00,60.0,57.4,29.96,WNW,293,1.0,-999.0,91,0.00,,,0.00,Wunderground v.1.15,2013-08-26 12:40:00,
2013-08-26 05:45:00,60.0,57.7,29.96,WNW,293,0.0,-999.0,92,0.00,,,0.00,Wunderground v.1.15,2013-08-26 12:45:00,
2013-08-26 05:50:00,60.0,57.7,29.96,West,270,1.0,-999.0,92,0.00,,,0.00,Wunderground v.1.15,2013-08-26 12:50:00,
2013-08-26 05:55:00,59.9,57.6,29.96,SW,225,2.0,-999.0,92,0.00,,,0.00,Wunderground v.1.15,2013-08-26 12:55:00,
2013-08-26 06:00:00,59.9,57.6,29.96,WSW,248,1.0,-999.0,92,0.00,,,0.00,Wunderground v.1.15,2013-08-26 13:00:00,
2013-08-26 06:05:00,59.8,57.5,29.96,SW,225,2.0,-999.0,92,0.00,,,0.00,Wunderground v.1.15,2013-08-26 13:05:00,
2013-08-26 06:10:00,59.7,57.4,29.97,WNW,293,1.0,-999.0,92,0.00,,,0.00,Wunderground v.1.15,2013-08-26 13:10:00,
2013-08-26 06:15:00,59.6,57.6,29.97,WNW,293,1.0,-999.0,93,0.00,,,0.00,Wunderground v.1.15,2013-08-26 13:15:00,
2013-08-26 06:20:00,59.5,57.5,29.97,NW,315,1.0,-999.0,93,0.00,,,0.00,Wunderground v.1.15,2013-08-26 13:20:00,
2013-08-26 06:25:00,59.5,57.5,29.97,SW,225,1.0,-999.0,93,0.00,,,0.00,Wunderground v.1.15,2013-08-26 13:25:00,
2013-08-26 06:30:00,59.4,57.4,29.97,WSW,248,2.0,-999.0,93,0.00,,,0.00,Wunderground v.1.15,2013-08-26 13:30:00,
2013-08-26 06:35:00,59.3,57.3,29.97,WSW,248,2.0,-999.0,93,0.00,,,0.00,Wunderground v.1.15,2013-08-26 13:35:00,
2013-08-26 06:40:00,59.2,57.5,29.97,WSW,248,0.0,-999.0,94,0.00,,,0.00,Wunderground v.1.15,2013-08-26 13:40:00,
2013-08-26 06:45:00,59.2,57.5,29.97,NW,315,0.0,-999.0,94,0.00,,,0.00,Wunderground v.1.15,2013-08-26 13:45:00,
2013-08-26 06:50:00,59.1,57.4,29.97,West,270,0.0,-999.0,94,0.00,,,0.00,Wunderground v.1.15,2013-08-26 13:50:00,
2013-08-26 06:55:00,59.0,57.3,29.97,West,270,1.0,-999.0,94,0.00,,,0.00,Wunderground v.1.15,2013-08-26 13:55:00,
2013-08-26 07:00:00,58.9,57.2,29.97,WNW,293,0.0,-999.0,94,0.00,,,0.00,Wunderground v.1.15,2013-08-26 14:00:00,
2013-08-26 07:05:00,58.9,57.2,29.97,WNW,293,0.0,-999.0,94,0.00,,,0.00,Wunderground v.1.15,2013-08-26 14:05:00,
2013-08-26 07:10:00,58.9,57.2,29.97,WNW,293,1.0,-999.0,94,0.00,,,0.00,Wunderground v.1.15,2013-08-26 14:10:00,
2013-08-26 07:15:00,58.9,57.2,29.97,West,270,1.0,-999.0,94,0.00,,,0.00,Wunderground v.1.15,2013-08-26 14:15:00,
2013-08-26 07:20:00,58.8,57.1,29.97,NW,315,1.0,-999.0,94,0.00,,,0.00,Wunderground v.1.15,2013-08-26 14:20:00,
2013-08-26 07:25:00,58.9,57.5,29.97,NW,315,0.0,-999.0,95,0.00,,,0.00,Wunderground v.1.15,2013-08-26 14:25:00,
2013-08-26 07:30:00,58.9,57.5,29.97,West,270,0.0,-999.0,95,0.00,,,0.00,Wunderground v.1.15,2013-08-26 14:30:00,
2013-08-26 07:35:00,58.9,57.5,29.97,West,270,0.0,-999.0,95,0.00,,,0.00,Wunderground v.1.15,2013-08-26 14:35:00,
2013-08-26 07:40:00,58.9,57.5,29.97,West,270,0.0,-999.0,95,0.00,,,0.00,Wunderground v.1.15,2013-08-26 14:40:00,
2013-08-26 07:45:00,58.9,57.5,29.97,West,270,0.0,-999.0,95,0.00,,,0.00,Wunderground v.1.15,2013-08-26 14:45:00,
2013-08-26 07:50:00,58.9,57.5,29.98,West,270,0.0,-999.0,95,0.00,,,0.00,Wunderground v.1.15,2013-08-26 14:50:00,
2013-08-26 07:55:00,58.9,57.5,29.98,N/A,-737280,0.0,-999.0,95,0.00,,,0.00,Wunderground v.1.15,2013-08-26 14:55:00,
2013-08-26 08:00:00,59.0,57.6,29.98,West,270,0.0,-999.0,95,0.00,,,0.00,Wunderground v.1.15,2013-08-26 15:00:00,
2013-08-26 08:05:00,59.1,57.7,29.98,West,270,0.0,-999.0,95,0.00,,,0.00,Wunderground v.1.15,2013-08-26 15:05:00,
2013-08-26 08:10:00,59.2,57.8,29.98,SSW,203,0.0,-999.0,95,0.00,,,0.00,Wunderground v.1.15,2013-08-26 15:10:00,
2013-08-26 08:15:00,59.3,57.9,29.98,SSW,203,0.0,-999.0,95,0.00,,,0.00,Wunderground v.1.15,2013-08-26 15:15:00,
2013-08-26 08:20:00,59.3,57.9,29.98,WSW,248,1.0,-999.0,95,0.00,,,0.00,Wunderground v.1.15,2013-08-26 15:20:00,
2013-08-26 08:25:00,59.3,57.6,29.98,WNW,293,1.0,-999.0,94,0.00,,,0.00,Wunderground v.1.15,2013-08-26 15:25:00,
2013-08-26 08:30:00,59.3,57.6,29.98,West,270,3.0,-999.0,94,0.00,,,0.00,Wunderground v.1.15,2013-08-26 15:30:00,
2013-08-26 08:35:00,59.4,57.7,29.98,SW,225,2.0,-999.0,94,0.00,,,0.00,Wunderground v.1.15,2013-08-26 15:35:00,
2013-08-26 08:40:00,59.5,57.5,29.98,West,270,4.0,-999.0,93,0.00,,,0.00,Wunderground v.1.15,2013-08-26 15:40:00,
2013-08-26 08:45:00,59.6,57.3,29.98,SW,225,4.0,-999.0,92,0.00,,,0.00,Wunderground v.1.15,2013-08-26 15:45:00,
2013-08-26 08:50:00,59.8,57.5,29.99,SW,225,3.0,-999.0,92,0.00,,,0.00,Wunderground v.1.15,2013-08-26 15:50:00,
2013-08-26 08:55:00,59.9,57.6,29.99,WSW,248,5.0,-999.0,92,0.00,,,0.00,Wunderground v.1.15,2013-08-26 15:55:00,
2013-08-26 09:00:00,60.0,57.7,29.99,SW,225,4.0,-999.0,92,0.00,,,0.00,Wunderground v.1.15,2013-08-26 16:00:00,
2013-08-26 09:05:00,60.2,57.9,29.99,SW,225,4.0,-999.0,92,0.00,,,0.00,Wunderground v.1.15,2013-08-26 16:05:00,
2013-08-26 09:10:00,60.3,58.0,29.99,WSW,248,2.0,-999.0,92,0.00,,,0.00,Wunderground v.1.15,2013-08-26 16:10:00,
2013-08-26 09:15:00,60.3,57.7,29.99,WSW,248,4.0,-999.0,91,0.00,,,0.00,Wunderground v.1.15,2013-08-26 16:15:00,
2013-08-26 09:20:00,60.3,57.7,29.99,West,270,3.0,-999.0,91,0.00,,,0.00,Wunderground v.1.15,2013-08-26 16:20:00,
2013-08-26 09:25:00,60.3,57.7,29.98,WSW,248,3.0,-999.0,91,0.00,,,0.00,Wunderground v.1.15,2013-08-26 16:25:00,
2013-08-26 09:30:00,60.4,57.8,29.99,West,270,2.0,-999.0,91,0.00,,,0.00,Wunderground v.1.15,2013-08-26 16:30:00,
2013-08-26 09:35:00,60.5,57.9,29.99,NW,315,2.0,-999.0,91,0.00,,,0.00,Wunderground v.1.15,2013-08-26 16:35:00,
2013-08-26 09:40:00,60.8,58.2,29.99,NW,315,2.0,-999.0,91,0.00,,,0.00,Wunderground v.1.15,2013-08-26 16:40:00,
2013-08-26 09:45:00,60.8,57.5,29.99,West,270,3.0,-999.0,89,0.00,,,0.00,Wunderground v.1.15,2013-08-26 16:45:00,
2013-08-26 09:50:00,61.0,57.7,29.99,West,270,1.0,-999.0,89,0.00,,,0.00,Wunderground v.1.15,2013-08-26 16:50:00,
2013-08-26 09:55:00,61.3,58.0,29.99,West,270,1.0,-999.0,89,0.00,,,0.00,Wunderground v.1.15,2013-08-26 16:55:00,
2013-08-26 10:00:00,61.6,57.7,29.99,SW,225,4.0,-999.0,87,0.00,,,0.00,Wunderground v.1.15,2013-08-26 17:00:00,
2013-08-26 10:05:00,61.9,58.0,29.99,SW,225,3.0,-999.0,87,0.00,,,0.00,Wunderground v.1.15,2013-08-26 17:05:00,
2013-08-26 10:10:00,62.3,58.1,29.99,SW,225,4.0,-999.0,86,0.00,,,0.00,Wunderground v.1.15,2013-08-26 17:10:00,
2013-08-26 10:15:00,62.7,58.1,29.99,SSW,203,4.0,-999.0,85,0.00,,,0.00,Wunderground v.1.15,2013-08-26 17:15:00,
2013-08-26 10:20:00,62.7,57.8,29.99,SW,225,6.0,-999.0,84,0.00,,,0.00,Wunderground v.1.15,2013-08-26 17:20:00,
2013-08-26 10:25:00,62.8,57.9,29.99,SW,225,4.0,-999.0,84,0.00,,,0.00,Wunderground v.1.15,2013-08-26 17:25:00,
2013-08-26 10:30:00,63.0,58.1,29.98,South,180,2.0,-999.0,84,0.00,,,0.00,Wunderground v.1.15,2013-08-26 17:30:00,
2013-08-26 10:35:00,63.1,57.9,29.99,SW,225,6.0,-999.0,83,0.00,,,0.00,Wunderground v.1.15,2013-08-26 17:35:00,
2013-08-26 10:40:00,63.1,58.2,29.99,West,270,3.0,-999.0,84,0.00,,,0.00,Wunderground v.1.15,2013-08-26 17:40:00,
2013-08-26 10:45:00,63.3,57.7,29.99,SW,225,5.0,-999.0,82,0.00,,,0.00,Wunderground v.1.15,2013-08-26 17:45:00,
2013-08-26 10:59:00,63.5,58.2,29.99,SW,225,4.0,-999.0,83,0.00,,,0.00,Wunderground v.1.15,2013-08-26 17:59:00,
2013-08-26 11:05:00,64.3,58.3,29.99,SW,218,5.0,10.0,81,0.00,,,0.00,Wunderground v.1.15,2013-08-26 18:05:00,
2013-08-26 11:10:00,64.6,58.3,29.99,South,191,6.0,6.0,80,0.00,,,0.00,Wunderground v.1.15,2013-08-26 18:10:00,
2013-08-26 11:20:00,65.7,58.7,29.98,SSW,210,4.0,10.0,78,0.00,,,0.00,Wunderground v.1.15,2013-08-26 18:20:00,
2013-08-26 11:25:00,65.8,58.4,29.98,SW,227,6.0,10.0,77,0.00,,,0.00,Wunderground v.1.15,2013-08-26 18:25:00,
2013-08-26 11:35:00,66.5,58.7,29.98,SW,215,4.0,8.0,76,0.00,,,0.00,Wunderground v.1.15,2013-08-26 18:35:00,
2013-08-26 11:40:00,66.3,58.9,29.98,SSW,205,6.0,6.0,77,0.00,,,0.00,Wunderground v.1.15,2013-08-26 18:40:00,
2013-08-26 11:50:00,66.1,58.7,29.98,SSW,196,6.0,6.0,77,0.00,,,0.00,Wunderground v.1.15,2013-08-26 18:50:00,
2013-08-26 11:55:00,66.7,59.3,29.98,WNW,292,7.0,7.0,77,0.00,,,0.00,Wunderground v.1.15,2013-08-26 18:55:00,
2013-08-26 12:05:00,67.1,58.9,29.98,SSE,164,5.0,10.0,75,0.00,,,0.00,Wunderground v.1.15,2013-08-26 19:05:00,
2013-08-26 12:15:00,67.4,59.2,29.97,WSW,241,3.0,5.0,75,0.00,,,0.00,Wunderground v.1.15,2013-08-26 19:15:00,
2013-08-26 12:25:00,67.7,58.7,29.97,SW,231,6.0,7.0,73,0.00,,,0.00,Wunderground v.1.15,2013-08-26 19:25:00,
2013-08-26 12:35:00,67.9,58.9,29.97,WSW,247,5.0,7.0,73,0.00,,,0.00,Wunderground v.1.15,2013-08-26 19:35:00,
2013-08-26 12:40:00,67.9,58.5,29.97,WSW,240,4.0,5.0,72,0.00,,,0.00,Wunderground v.1.15,2013-08-26 19:40:00,
2013-08-26 12:50:00,69.0,59.2,29.96,SSW,202,5.0,5.0,71,0.00,,,0.00,Wunderground v.1.15,2013-08-26 19:50:00,
2013-08-26 13:00:00,70.0,59.8,29.96,WSW,257,5.0,8.0,70,0.00,,,0.00,Wunderground v.1.15,2013-08-26 20:00:00,
2013-08-26 13:10:00,70.5,59.4,29.95,SSW,196,4.0,7.0,68,0.00,,,0.00,Wunderground v.1.15,2013-08-26 20:10:00,
2013-08-26 13:20:00,71.3,59.8,29.95,West,274,4.0,7.0,67,0.00,,,0.00,Wunderground v.1.15,2013-08-26 20:20:00,
2013-08-26 13:30:00,70.9,59.4,29.95,SW,228,5.0,10.0,67,0.00,,,0.00,Wunderground v.1.15,2013-08-26 20:30:00,
2013-08-26 13:40:00,70.9,60.2,29.95,SW,233,6.0,6.0,69,0.00,,,0.00,Wunderground v.1.15,2013-08-26 20:40:00,
2013-08-26 13:50:00,69.9,59.3,29.95,SW,232,6.0,6.0,69,0.00,,,0.00,Wunderground v.1.15,2013-08-26 20:50:00,
2013-08-26 13:55:00,70.1,59.5,29.95,SW,224,5.0,7.0,69,0.00,,,0.00,Wunderground v.1.15,2013-08-26 20:55:00,
2013-08-26 14:05:00,70.8,60.1,29.94,SSW,205,6.0,8.0,69,0.00,,,0.00,Wunderground v.1.15,2013-08-26 21:05:00,
2013-08-26 14:15:00,71.1,60.0,29.94,SW,233,6.0,7.0,68,0.00,,,0.00,Wunderground v.1.15,2013-08-26 21:15:00,
2013-08-26 14:25:00,71.3,60.2,29.94,SW,218,6.0,8.0,68,0.00,,,0.00,Wunderground v.1.15,2013-08-26 21:25:00,
2013-08-26 14:30:00,71.1,60.0,29.94,SSW,206,7.0,8.0,68,0.00,,,0.00,Wunderground v.1.15,2013-08-26 21:30:00,
2013-08-26 14:40:00,70.9,60.2,29.93,West,263,7.0,8.0,69,0.00,,,0.00,Wunderground v.1.15,2013-08-26 21:40:00,
2013-08-26 14:45:00,71.1,60.0,29.93,SSW,202,6.0,8.0,68,0.00,,,0.00,Wunderground v.1.15,2013-08-26 21:45:00,
2013-08-26 14:55:00,71.7,60.2,29.93,SW,229,7.0,8.0,67,0.00,,,0.00,Wunderground v.1.15,2013-08-26 21:55:00,
2013-08-26 15:00:00,71.8,59.8,29.93,SW,236,7.0,10.0,66,0.00,,,0.00,Wunderground v.1.15,2013-08-26 22:00:00,
2013-08-26 15:10:00,71.5,59.1,29.92,SW,228,8.0,8.0,65,0.00,,,0.00,Wunderground v.1.15,2013-08-26 22:10:00,
2013-08-26 15:20:00,71.9,59.1,29.92,SE,141,7.0,7.0,64,0.00,,,0.00,Wunderground v.1.15,2013-08-26 22:20:00,
2013-08-26 15:30:00,71.7,58.4,29.92,WSW,245,7.0,7.0,63,0.00,,,0.00,Wunderground v.1.15,2013-08-26 22:30:00,
2013-08-26 15:40:00,71.1,57.9,29.92,SW,231,7.0,10.0,63,0.00,,,0.00,Wunderground v.1.15,2013-08-26 22:40:00,
2013-08-26 15:50:00,72.0,58.3,29.92,WSW,240,6.0,9.0,62,0.00,,,0.00,Wunderground v.1.15,2013-08-26 22:50:00,
2013-08-26 16:00:00,72.0,56.9,29.92,SSW,199,7.0,7.0,59,0.00,,,0.00,Wunderground v.1.15,2013-08-26 23:00:00,
2013-08-26 16:05:00,71.2,57.1,29.92,SW,229,7.0,8.0,61,0.00,,,0.00,Wunderground v.1.15,2013-08-26 23:05:00,
2013-08-26 16:15:00,72.0,57.8,29.92,WSW,247,6.0,7.0,61,0.00,,,0.00,Wunderground v.1.15,2013-08-26 23:15:00,
2013-08-26 16:25:00,72.2,57.5,29.91,South,175,7.0,7.0,60,0.00,,,0.00,Wunderground v.1.15,2013-08-26 23:25:00,
2013-08-26 16:35:00,71.9,56.8,29.91,West,259,8.0,12.0,59,0.00,,,0.00,Wunderground v.1.15,2013-08-26 23:35:00,
2013-08-26 16:45:00,72.0,56.9,29.91,SW,236,6.0,7.0,59,0.00,,,0.00,Wunderground v.1.15,2013-08-26 23:45:00,
2013-08-26 16:55:00,72.6,57.4,29.91,WSW,240,6.0,6.0,59,0.00,,,0.00,Wunderground v.1.15,2013-08-26 23:55:00,
2013-08-26 17:05:00,71.5,57.3,29.91,WSW,257,7.0,11.0,61,0.00,,,0.00,Wunderground v.1.15,2013-08-27 00:05:00,
2013-08-26 17:15:00,70.9,56.8,29.91,West,280,7.0,11.0,61,0.00,,,0.00,Wunderground v.1.15,2013-08-27 00:15:00,
2013-08-26 17:25:00,71.3,57.2,29.91,WSW,258,6.0,11.0,61,0.00,,,0.00,Wunderground v.1.15,2013-08-27 00:25:00,
2013-08-26 17:35:00,71.2,57.1,29.90,SW,233,6.0,11.0,61,0.00,,,0.00,Wunderground v.1.15,2013-08-27 00:35:00,
2013-08-26 17:45:00,70.6,56.9,29.90,WSW,238,6.0,11.0,62,0.00,,,0.00,Wunderground v.1.15,2013-08-27 00:45:00,
2013-08-26 17:55:00,69.8,57.1,29.90,SW,220,8.0,8.0,64,0.00,,,0.00,Wunderground v.1.15,2013-08-27 00:55:00,
2013-08-26 18:05:00,69.5,57.2,29.90,West,263,6.0,11.0,65,0.00,,,0.00,Wunderground v.1.15,2013-08-27 01:05:00,
2013-08-26 18:15:00,68.5,57.1,29.90,WSW,238,7.0,11.0,67,0.00,,,0.00,Wunderground v.1.15,2013-08-27 01:15:00,
2013-08-26 18:25:00,68.4,57.4,29.90,WSW,255,5.0,11.0,68,0.00,,,0.00,Wunderground v.1.15,2013-08-27 01:25:00,
2013-08-26 18:35:00,68.5,57.9,29.90,SW,233,5.0,8.0,69,0.00,,,0.00,Wunderground v.1.15,2013-08-27 01:35:00,
2013-08-26 18:45:00,67.7,57.6,29.90,WSW,245,5.0,5.0,70,0.00,,,0.00,Wunderground v.1.15,2013-08-27 01:45:00,
2013-08-26 18:55:00,67.0,58.1,29.90,SW,214,5.0,5.0,73,0.00,,,0.00,Wunderground v.1.15,2013-08-27 01:55:00,
2013-08-26 19:05:00,66.1,57.6,29.90,WNW,285,5.0,5.0,74,0.00,,,0.00,Wunderground v.1.15,2013-08-27 02:05:00,
2013-08-26 19:10:00,65.9,57.7,29.90,SW,229,4.0,5.0,75,0.00,,,0.00,Wunderground v.1.15,2013-08-27 02:10:00,
2013-08-26 19:15:00,65.2,57.4,29.90,WSW,239,4.0,5.0,76,0.00,,,0.00,Wunderground v.1.15,2013-08-27 02:15:00,
2013-08-26 19:20:00,64.3,57.3,29.90,WSW,245,5.0,5.0,78,0.00,,,0.00,Wunderground v.1.15,2013-08-27 02:20:00,
2013-08-26 19:25:00,63.7,57.4,29.90,SW,217,4.0,5.0,80,0.00,,,0.00,Wunderground v.1.15,2013-08-27 02:25:00,
2013-08-26 19:30:00,63.3,57.0,29.90,SW,223,3.0,6.0,80,0.00,,,0.00,Wunderground v.1.15,2013-08-27 02:30:00,
2013-08-26 19:40:00,62.5,56.9,29.90,SW,234,2.0,3.0,82,0.00,,,0.00,Wunderground v.1.15,2013-08-27 02:40:00,
2013-08-26 19:50:00,61.9,56.7,29.90,West,266,2.0,2.0,83,0.00,,,0.00,Wunderground v.1.15,2013-08-27 02:50:00,
2013-08-26 19:55:00,61.6,56.0,29.90,WSW,252,2.0,2.0,82,0.00,,,0.00,Wunderground v.1.15,2013-08-27 02:55:00,
2013-08-26 20:00:00,61.4,56.2,29.90,West,264,1.0,7.0,83,0.00,,,0.00,Wunderground v.1.15,2013-08-27 03:00:00,
2013-08-26 20:10:00,61.0,55.8,29.90,SW,232,2.0,2.0,83,0.00,,,0.00,Wunderground v.1.15,2013-08-27 03:10:00,
2013-08-26 20:20:00,60.7,55.8,29.89,WSW,257,2.0,7.0,84,0.00,,,0.00,Wunderground v.1.15,2013-08-27 03:20:00,
2013-08-26 20:30:00,60.4,55.5,29.90,SSW,211,1.0,1.0,84,0.00,,,0.00,Wunderground v.1.15,2013-08-27 03:30:00,
2013-08-26 20:35:00,60.2,55.7,29.90,South,191,0.0,7.0,85,0.00,,,0.00,Wunderground v.1.15,2013-08-27 03:35:00,
2013-08-26 20:40:00,60.0,55.5,29.90,South,189,0.0,7.0,85,0.00,,,0.00,Wunderground v.1.15,2013-08-27 03:40:00,
2013-08-26 20:50:00,59.7,55.8,29.90,SSE,155,1.0,7.0,87,0.00,,,0.00,Wunderground v.1.15,2013-08-27 03:50:00,
2013-08-26 20:55:00,59.5,55.3,29.90,ESE,113,1.0,7.0,86,0.00,,,0.00,Wunderground v.1.15,2013-08-27 03:55:00,
2013-08-26 21:05:00,59.0,55.1,29.91,East,90,0.0,7.0,87,0.00,,,0.00,Wunderground v.1.15,2013-08-27 04:05:00,
2013-08-26 21:10:00,58.9,55.4,29.91,East,90,0.0,7.0,88,0.00,,,0.00,Wunderground v.1.15,2013-08-27 04:10:00,
2013-08-26 21:15:00,58.9,55.4,29.91,East,90,0.0,7.0,88,0.00,,,0.00,Wunderground v.1.15,2013-08-27 04:15:00,
2013-08-26 21:20:00,58.7,55.2,29.91,East,91,0.0,7.0,88,0.00,,,0.00,Wunderground v.1.15,2013-08-27 04:20:00,
2013-08-26 21:25:00,58.6,55.4,29.91,ESE,119,0.0,7.0,89,0.00,,,0.00,Wunderground v.1.15,2013-08-27 04:25:00,
2013-08-26 21:30:00,58.7,55.8,29.91,ESE,119,1.0,1.0,90,0.00,,,0.00,Wunderground v.1.15,2013-08-27 04:30:00,
2013-08-26 21:35:00,58.6,55.4,29.91,SE,124,0.0,7.0,89,0.00,,,0.00,Wunderground v.1.15,2013-08-27 04:35:00,
2013-08-26 21:40:00,58.6,55.4,29.91,SE,124,0.0,7.0,89,0.00,,,0.00,Wunderground v.1.15,2013-08-27 04:40:00,
2013-08-26 21:50:00,58.5,55.3,29.91,SE,124,0.0,7.0,89,0.00,,,0.00,Wunderground v.1.15,2013-08-27 04:50:00,
2013-08-26 22:00:00,58.4,55.2,29.91,East,89,0.0,7.0,89,0.00,,,0.00,Wunderground v.1.15,2013-08-27 05:00:00,
2013-08-26 22:05:00,58.2,55.0,29.90,East,86,0.0,7.0,89,0.00,,,0.00,Wunderground v.1.15,2013-08-27 05:05:00,
2013-08-26 22:10:00,58.0,54.8,29.90,East,86,0.0,0.0,89,0.00,,,0.00,Wunderground v.1.15,2013-08-27 05:10:00,
2013-08-26 22:20:00,57.7,54.8,29.90,East,87,0.0,0.0,90,0.00,,,0.00,Wunderground v.1.15,2013-08-27 05:20:00,
2013-08-26 22:30:00,57.5,54.6,29.90,East,87,0.0,0.0,90,0.00,,,0.00,Wunderground v.1.15,2013-08-27 05:30:00,
2013-08-26 22:40:00,57.1,54.2,29.90,East,87,0.0,0.0,90,0.00,,,0.00,Wunderground v.1.15,2013-08-27 05:40:00,
2013-08-26 22:50:00,56.7,53.8,29.90,East,89,0.0,1.0,90,0.00,,,0.00,Wunderground v.1.15,2013-08-27 05:50:00,
2013-08-26 22:55:00,56.7,54.1,29.90,East,92,0.0,1.0,91,0.00,,,0.00,Wunderground v.1.15,2013-08-27 05:55:00,
2013-08-26 23:05:00,56.7,54.4,29.90,East,91,0.0,3.0,92,0.00,,,0.00,Wunderground v.1.15,2013-08-27 06:05:00,
2013-08-26 23:10:00,56.7,54.4,29.90,East,91,0.0,3.0,92,0.00,,,0.00,Wunderground v.1.15,2013-08-27 06:10:00,
2013-08-26 23:20:00,56.6,54.3,29.90,East,90,0.0,3.0,92,0.00,,,0.00,Wunderground v.1.15,2013-08-27 06:20:00,
2013-08-26 23:25:00,56.6,54.3,29.90,East,87,0.0,3.0,92,0.00,,,0.00,Wunderground v.1.15,2013-08-27 06:25:00,
2013-08-26 23:35:00,56.5,54.2,29.89,East,86,0.0,3.0,92,0.00,,,0.00,Wunderground v.1.15,2013-08-27 06:35:00,
2013-08-26 23:40:00,56.4,54.1,29.89,East,86,0.0,3.0,92,0.00,,,0.00,Wunderground v.1.15,2013-08-27 06:40:00,
2013-08-26 23:50:00,56.4,54.4,29.89,East,85,0.0,3.0,93,0.00,,,0.00,Wunderground v.1.15,2013-08-27 06:50:00,